This is the latest recevied weather packets stored in our database for station/object WJ9H. If no packets are shown the sender has not sent any weather packets the latest 1 day(s).
| Time | Temp. | Humidity | Pressure | Rain* | Wind** | Luminosity | Snow |
|---|---|---|---|---|---|---|---|
| 1778006087 | 12.22° C | - | 1009.9 hPa | 0 mm | 3.13 m/s, 165° | - | - |
| 1778005778 | 12.22° C | - | 1009.9 hPa | 0 mm | 3.58 m/s, 322° | - | - |
| 1778005498 | 12.78° C | - | 1009.5 hPa | 0 mm | 3.13 m/s, 342° | - | - |
| 1778005178 | 12.78° C | - | 1009.5 hPa | 0 mm | 3.13 m/s, 342° | - | - |
| 1778005034 | 12.22° C | - | 1009.9 hPa | 0 mm | 3.58 m/s, 311° | - | - |
| 1778004887 | 12.22° C | - | 1009.9 hPa | 0 mm | 4.92 m/s, 285° | - | - |
| 1778004579 | 12.22° C | - | 1009.9 hPa | 0 mm | 3.58 m/s, 311° | - | - |
| 1778004434 | 11.67° C | - | 1009.5 hPa | 0 mm | 3.58 m/s, 1° | - | - |
| 1778003979 | 11.67° C | - | 1009.5 hPa | 0 mm | 3.58 m/s, 1° | - | - |
| 1778003698 | 12.22° C | - | 1009.5 hPa | 0 mm | 4.92 m/s, 346° | - | - |
| 1778003687 | 12.22° C | - | 1009.5 hPa | 0 mm | 3.13 m/s, 349° | - | - |
| 1778003378 | 12.22° C | - | 1009.5 hPa | 0 mm | 4.92 m/s, 346° | - | - |
| 1778003235 | 12.78° C | - | 1009.9 hPa | 0 mm | 3.58 m/s, 329° | - | - |
| 1778002778 | 12.78° C | - | 1009.9 hPa | 0 mm | 3.58 m/s, 329° | - | - |
| 1778002637 | 12.22° C | - | 1009.5 hPa | 0 mm | 2.68 m/s, 14° | - | - |
| 1778002487 | 12.22° C | - | 1009.9 hPa | 0 mm | 4.47 m/s, 63° | - | - |
| 1778002179 | 12.22° C | - | 1009.5 hPa | 0 mm | 2.68 m/s, 14° | - | - |
| 1778001975 | 12.22° C | - | 1009.5 hPa | 0 mm | 4.92 m/s, 352° | - | - |
| 1778001577 | 12.22° C | - | 1009.5 hPa | 0 mm | 4.92 m/s, 352° | - | - |
| 1778001454 | 12.78° C | - | 1009.9 hPa | 0 mm | 3.13 m/s, 357° | - | - |
| 1778001289 | 12.22° C | - | 1009.9 hPa | 0 mm | 5.36 m/s, 44° | - | - |
| 1778000979 | 12.78° C | - | 1009.9 hPa | 0 mm | 3.13 m/s, 357° | - | - |
| 1778000835 | 12.22° C | - | 1009.9 hPa | 0 mm | 4.02 m/s, 325° | - | - |
| 1778000377 | 12.22° C | - | 1009.9 hPa | 0 mm | 4.02 m/s, 325° | - | - |
| 1778000088 | 11.67° C | - | 1009.9 hPa | 0 mm | 4.02 m/s, 290° | - | - |
* Rain latest hour (hover to see other rain measurements)
** Current wind speed in m/s (hover to see current wind gust speed)